Year,Month,Day,Hour,Minute,Value (Times are PST for windgust in km/hr)
2015,08,29,00,00,3.20
2015,08,29,00,01,4.80
2015,08,29,00,02,3.20
2015,08,29,00,03,1.60
2015,08,29,00,04,1.60
2015,08,29,00,06,3.20
2015,08,29,00,07,1.60
2015,08,29,00,09,1.60
2015,08,29,00,11,1.60
2015,08,29,00,12,3.20
2015,08,29,00,13,1.60
2015,08,29,00,14,1.60
2015,08,29,00,15,1.60
2015,08,29,00,16,3.20
2015,08,29,00,17,1.60
2015,08,29,00,41,1.60
2015,08,29,00,42,1.60
2015,08,29,00,43,1.60
2015,08,29,00,46,1.60
2015,08,29,00,47,1.60
2015,08,29,00,49,3.20
2015,08,29,00,50,1.60
2015,08,29,00,51,3.20
2015,08,29,00,52,4.80
2015,08,29,00,53,6.40
2015,08,29,00,54,4.80
2015,08,29,00,55,4.80
2015,08,29,00,56,4.80
2015,08,29,00,57,4.80
2015,08,29,00,58,6.40
2015,08,29,00,59,4.80
2015,08,29,01,00,6.40
2015,08,29,01,01,6.40
2015,08,29,01,02,8.10
2015,08,29,01,03,6.40
2015,08,29,01,04,4.80
2015,08,29,01,05,1.60
2015,08,29,01,06,3.20
2015,08,29,01,07,4.80
2015,08,29,01,08,4.80
2015,08,29,01,09,4.80
2015,08,29,01,10,3.20
2015,08,29,01,11,1.60
2015,08,29,01,12,4.80
2015,08,29,01,13,4.80
2015,08,29,01,14,1.60
2015,08,29,01,15,3.20
2015,08,29,01,16,3.20
2015,08,29,01,17,6.40
2015,08,29,01,18,4.80
2015,08,29,01,19,4.80
2015,08,29,01,20,4.80
2015,08,29,01,21,3.20
2015,08,29,01,22,4.80
2015,08,29,01,23,8.10
2015,08,29,01,24,6.40
2015,08,29,01,25,6.40
2015,08,29,01,26,12.90
2015,08,29,01,27,8.10
2015,08,29,01,28,11.30
2015,08,29,01,29,8.10
2015,08,29,01,30,8.10
2015,08,29,01,31,8.10
2015,08,29,01,32,11.30
2015,08,29,01,33,6.40
2015,08,29,01,34,6.40
2015,08,29,01,35,8.10
2015,08,29,01,36,9.60
2015,08,29,01,37,11.30
2015,08,29,01,38,8.10
2015,08,29,01,39,9.60
2015,08,29,01,40,8.10
2015,08,29,01,41,8.10
2015,08,29,01,42,8.10
2015,08,29,01,43,9.60
2015,08,29,01,44,6.40
2015,08,29,01,45,8.10
2015,08,29,01,46,9.60
2015,08,29,01,47,11.30
2015,08,29,01,48,12.90
2015,08,29,01,49,9.60
2015,08,29,01,50,11.30
2015,08,29,01,51,11.30
2015,08,29,01,52,11.30
2015,08,29,01,53,9.60
2015,08,29,01,54,9.60
2015,08,29,01,55,11.30
2015,08,29,01,56,11.30
2015,08,29,01,57,8.10
2015,08,29,01,58,11.30
2015,08,29,01,59,11.30
2015,08,29,02,00,11.30
2015,08,29,02,01,12.90
2015,08,29,02,02,11.30
2015,08,29,02,03,12.90
2015,08,29,02,04,11.30
2015,08,29,02,05,12.90
2015,08,29,02,06,11.30
2015,08,29,02,07,14.50
2015,08,29,02,08,12.90
2015,08,29,02,09,14.50
2015,08,29,02,10,8.10
2015,08,29,02,11,6.40
2015,08,29,02,12,6.40
2015,08,29,02,13,4.80
2015,08,29,02,14,4.80
2015,08,29,02,15,4.80
2015,08,29,02,16,4.80
2015,08,29,02,17,6.40
2015,08,29,02,18,4.80
2015,08,29,02,19,1.60
2015,08,29,02,20,1.60
2015,08,29,02,21,3.20
2015,08,29,02,22,4.80
2015,08,29,02,23,1.60
2015,08,29,02,24,3.20
2015,08,29,02,25,4.80
2015,08,29,02,26,6.40
2015,08,29,02,27,9.60
2015,08,29,02,28,9.60
2015,08,29,02,29,8.10
2015,08,29,02,30,6.40
2015,08,29,02,31,1.60
2015,08,29,02,32,3.20
2015,08,29,02,33,6.40
2015,08,29,02,34,8.10
2015,08,29,02,35,3.20
2015,08,29,02,36,6.40
2015,08,29,02,37,6.40
2015,08,29,02,38,6.40
2015,08,29,02,39,8.10
2015,08,29,02,40,4.80
2015,08,29,02,41,6.40
2015,08,29,02,42,9.60
2015,08,29,02,43,11.30
2015,08,29,02,44,11.30
2015,08,29,02,45,9.60
2015,08,29,02,46,11.30
2015,08,29,02,47,12.90
2015,08,29,02,48,14.50
2015,08,29,02,49,12.90
2015,08,29,02,50,12.90
2015,08,29,02,51,8.10
2015,08,29,02,52,12.90
2015,08,29,02,53,11.30
2015,08,29,02,54,11.30
2015,08,29,02,55,14.50
2015,08,29,02,56,16.10
2015,08,29,02,57,12.90
2015,08,29,02,58,12.90
2015,08,29,02,59,14.50
2015,08,29,03,00,14.50
2015,08,29,03,01,12.90
2015,08,29,03,02,12.90
2015,08,29,03,03,8.10
2015,08,29,03,04,8.10
2015,08,29,03,05,8.10
2015,08,29,03,06,12.90
2015,08,29,03,07,12.90
2015,08,29,03,08,11.30
2015,08,29,03,09,9.60
2015,08,29,03,10,8.10
2015,08,29,03,11,11.30
2015,08,29,03,12,11.30
2015,08,29,03,13,9.60
2015,08,29,03,14,8.10
2015,08,29,03,15,4.80
2015,08,29,03,16,4.80
2015,08,29,03,17,4.80
2015,08,29,03,18,8.10
2015,08,29,03,19,8.10
2015,08,29,03,20,4.80
2015,08,29,03,21,4.80
2015,08,29,03,22,4.80
2015,08,29,03,23,4.80
2015,08,29,03,24,4.80
2015,08,29,03,25,4.80
2015,08,29,03,26,4.80
2015,08,29,03,27,1.60
2015,08,29,03,28,1.60
2015,08,29,03,29,1.60
2015,08,29,03,30,3.20
2015,08,29,03,31,3.20
2015,08,29,03,32,3.20
2015,08,29,03,33,6.40
2015,08,29,03,34,3.20
2015,08,29,03,35,4.80
2015,08,29,03,36,4.80
2015,08,29,03,37,4.80
2015,08,29,03,38,6.40
2015,08,29,03,39,6.40
2015,08,29,03,40,9.60
2015,08,29,03,41,11.30
2015,08,29,03,42,11.30
2015,08,29,03,43,11.30
2015,08,29,03,44,12.90
2015,08,29,03,45,11.30
2015,08,29,03,46,12.90
2015,08,29,03,47,14.50
2015,08,29,03,48,12.90
2015,08,29,03,49,9.60
2015,08,29,03,50,11.30
2015,08,29,03,51,11.30
2015,08,29,03,52,12.90
2015,08,29,03,53,12.90
2015,08,29,03,54,12.90
2015,08,29,03,55,11.30
2015,08,29,03,56,6.40
2015,08,29,03,57,4.80
2015,08,29,03,58,8.10
2015,08,29,03,59,11.30
2015,08,29,04,00,11.30
2015,08,29,04,01,9.60
2015,08,29,04,02,11.30
2015,08,29,04,03,9.60
2015,08,29,04,04,12.90
2015,08,29,04,05,11.30
2015,08,29,04,06,11.30
2015,08,29,04,07,9.60
2015,08,29,04,08,9.60
2015,08,29,04,09,12.90
2015,08,29,04,10,14.50
2015,08,29,04,11,14.50
2015,08,29,04,12,11.30
2015,08,29,04,13,12.90
2015,08,29,04,14,11.30
2015,08,29,04,15,12.90
2015,08,29,04,16,11.30
2015,08,29,04,17,12.90
2015,08,29,04,18,12.90
2015,08,29,04,19,17.70
2015,08,29,04,20,11.30
2015,08,29,04,21,11.30
2015,08,29,04,22,11.30
2015,08,29,04,23,9.60
2015,08,29,04,24,6.40
2015,08,29,04,25,9.60
2015,08,29,04,26,6.40
2015,08,29,04,27,9.60
2015,08,29,04,28,11.30
2015,08,29,04,29,12.90
2015,08,29,04,30,12.90
2015,08,29,04,31,9.60
2015,08,29,04,32,11.30
2015,08,29,04,33,11.30
2015,08,29,04,34,11.30
2015,08,29,04,35,9.60
2015,08,29,04,36,8.10
2015,08,29,04,37,4.80
2015,08,29,04,38,6.40
2015,08,29,04,39,3.20
2015,08,29,04,40,1.60
2015,08,29,04,41,3.20
2015,08,29,04,42,3.20
2015,08,29,04,43,1.60
2015,08,29,04,44,4.80
2015,08,29,04,45,6.40
2015,08,29,04,46,8.10
2015,08,29,04,47,9.60
2015,08,29,04,48,6.40
2015,08,29,04,49,6.40
2015,08,29,04,50,6.40
2015,08,29,04,51,6.40
2015,08,29,04,52,9.60
2015,08,29,04,53,9.60
2015,08,29,04,54,9.60
2015,08,29,04,55,12.90
2015,08,29,04,56,11.30
2015,08,29,04,57,9.60
2015,08,29,04,58,12.90
2015,08,29,04,59,12.90
2015,08,29,05,00,9.60
2015,08,29,05,01,8.10
2015,08,29,05,02,9.60
2015,08,29,05,03,6.40
2015,08,29,05,04,9.60
2015,08,29,05,05,11.30
2015,08,29,05,06,11.30
2015,08,29,05,07,11.30
2015,08,29,05,08,9.60
2015,08,29,05,09,8.10
2015,08,29,05,10,8.10
2015,08,29,05,11,4.80
2015,08,29,05,12,8.10
2015,08,29,05,13,9.60
2015,08,29,05,14,8.10
2015,08,29,05,15,8.10
2015,08,29,05,16,11.30
2015,08,29,05,17,9.60
2015,08,29,05,18,9.60
2015,08,29,05,19,4.80
2015,08,29,05,20,6.40
2015,08,29,05,21,6.40
2015,08,29,05,22,8.10
2015,08,29,05,23,3.20
2015,08,29,05,24,4.80
2015,08,29,05,25,4.80
2015,08,29,05,26,4.80
2015,08,29,05,27,4.80
2015,08,29,05,28,9.60
2015,08,29,05,29,6.40
2015,08,29,05,30,1.60
2015,08,29,05,31,6.40
2015,08,29,05,32,6.40
2015,08,29,05,33,6.40
2015,08,29,05,34,6.40
2015,08,29,05,35,4.80
2015,08,29,05,36,1.60
2015,08,29,05,37,3.20
2015,08,29,05,40,3.20
2015,08,29,05,41,3.20
2015,08,29,05,42,3.20
2015,08,29,05,43,1.60
2015,08,29,05,44,4.80
2015,08,29,05,45,3.20
2015,08,29,05,46,4.80
2015,08,29,05,47,3.20
2015,08,29,05,48,6.40
2015,08,29,05,49,4.80
2015,08,29,05,50,4.80
2015,08,29,05,51,3.20
2015,08,29,05,52,4.80
2015,08,29,05,53,6.40
2015,08,29,05,54,6.40
2015,08,29,05,55,9.60
2015,08,29,05,56,8.10
2015,08,29,05,57,4.80
2015,08,29,05,58,9.60
2015,08,29,05,59,3.20
2015,08,29,06,00,4.80
2015,08,29,06,01,3.20
2015,08,29,06,02,16.10
2015,08,29,06,03,17.70
2015,08,29,06,04,12.90
2015,08,29,06,05,14.50
2015,08,29,06,06,17.70
2015,08,29,06,07,16.10
2015,08,29,06,08,22.50
2015,08,29,06,09,16.10
2015,08,29,06,10,19.30
2015,08,29,06,11,16.10
2015,08,29,06,12,19.30
2015,08,29,06,13,19.30
2015,08,29,06,14,25.70
2015,08,29,06,15,24.20
2015,08,29,06,16,27.40
2015,08,29,06,17,27.40
2015,08,29,06,18,27.40
2015,08,29,06,19,27.40
2015,08,29,06,20,24.20
2015,08,29,06,21,22.50
2015,08,29,06,22,20.90
2015,08,29,06,23,12.90
2015,08,29,06,24,12.90
2015,08,29,06,25,16.10
2015,08,29,06,26,14.50
2015,08,29,06,27,16.10
2015,08,29,06,28,16.10
2015,08,29,06,29,20.90
2015,08,29,06,30,22.50
2015,08,29,06,31,27.40
2015,08,29,06,32,19.30
2015,08,29,06,33,24.20
2015,08,29,06,34,19.30
2015,08,29,06,35,14.50
2015,08,29,06,36,11.30
2015,08,29,06,37,9.60
2015,08,29,06,38,16.10
2015,08,29,06,39,14.50
2015,08,29,06,40,12.90
2015,08,29,06,41,17.70
2015,08,29,06,42,17.70
2015,08,29,06,43,12.90
2015,08,29,06,44,20.90
2015,08,29,06,45,16.10
2015,08,29,06,46,19.30
2015,08,29,06,47,16.10
2015,08,29,06,48,11.30
2015,08,29,06,49,14.50
2015,08,29,06,50,12.90
2015,08,29,06,51,11.30
2015,08,29,06,52,9.60
2015,08,29,06,53,11.30
2015,08,29,06,54,8.10
2015,08,29,06,55,8.10
2015,08,29,06,56,9.60
2015,08,29,06,57,9.60
2015,08,29,06,58,8.10
2015,08,29,06,59,4.80
2015,08,29,07,00,6.40
2015,08,29,07,01,12.90
2015,08,29,07,02,12.90
2015,08,29,07,03,11.30
2015,08,29,07,04,11.30
2015,08,29,07,05,11.30
2015,08,29,07,06,4.80
2015,08,29,07,07,4.80
2015,08,29,07,08,8.10
2015,08,29,07,09,8.10
2015,08,29,07,10,8.10
2015,08,29,07,11,8.10
2015,08,29,07,12,9.60
2015,08,29,07,13,8.10
2015,08,29,07,14,12.90
2015,08,29,07,15,14.50
2015,08,29,07,16,12.90
2015,08,29,07,17,9.60
2015,08,29,07,18,11.30
2015,08,29,07,19,8.10
2015,08,29,07,20,8.10
2015,08,29,07,21,6.40
2015,08,29,07,22,17.70
2015,08,29,07,23,16.10
2015,08,29,07,24,22.50
2015,08,29,07,25,20.90
2015,08,29,07,26,20.90
2015,08,29,07,27,19.30
2015,08,29,07,28,11.30
2015,08,29,07,29,8.10
2015,08,29,07,30,9.60
2015,08,29,07,31,19.30
2015,08,29,07,32,9.60
2015,08,29,07,33,3.20
2015,08,29,07,34,3.20
2015,08,29,07,35,9.60
2015,08,29,07,36,11.30
2015,08,29,07,37,11.30
2015,08,29,07,38,20.90
2015,08,29,07,39,25.70
2015,08,29,07,40,17.70
2015,08,29,07,41,14.50
2015,08,29,07,42,14.50
2015,08,29,07,43,17.70
2015,08,29,07,44,17.70
2015,08,29,07,45,17.70
2015,08,29,07,46,19.30
2015,08,29,07,47,29.00
2015,08,29,07,48,27.40
2015,08,29,07,49,25.70
2015,08,29,07,50,19.30
2015,08,29,07,51,19.30
2015,08,29,07,52,20.90
2015,08,29,07,53,20.90
2015,08,29,07,54,29.00
2015,08,29,07,55,19.30
2015,08,29,07,56,20.90
2015,08,29,07,57,22.50
2015,08,29,07,58,22.50
2015,08,29,07,59,14.50
2015,08,29,08,00,14.50
2015,08,29,08,01,14.50
2015,08,29,08,02,16.10
2015,08,29,08,03,12.90
2015,08,29,08,04,12.90
2015,08,29,08,05,12.90
2015,08,29,08,06,16.10
2015,08,29,08,07,14.50
2015,08,29,08,08,11.30
2015,08,29,08,09,11.30
2015,08,29,08,10,16.10
2015,08,29,08,11,17.70
2015,08,29,08,12,12.90
2015,08,29,08,13,12.90
2015,08,29,08,14,14.50
2015,08,29,08,15,17.70
2015,08,29,08,16,16.10
2015,08,29,08,17,11.30
2015,08,29,08,18,9.60
2015,08,29,08,19,9.60
2015,08,29,08,20,16.10
2015,08,29,08,21,14.50
2015,08,29,08,22,12.90
2015,08,29,08,23,14.50
2015,08,29,08,24,12.90
2015,08,29,08,25,12.90
2015,08,29,08,26,19.30
2015,08,29,08,27,16.10
2015,08,29,08,28,11.30
2015,08,29,08,29,16.10
2015,08,29,08,30,16.10
2015,08,29,08,31,14.50
2015,08,29,08,32,19.30
2015,08,29,08,33,14.50
2015,08,29,08,34,16.10
2015,08,29,08,35,16.10
2015,08,29,08,36,16.10
2015,08,29,08,37,16.10
2015,08,29,08,38,19.30
2015,08,29,08,39,19.30
2015,08,29,08,40,14.50
2015,08,29,08,41,12.90
2015,08,29,08,42,16.10
2015,08,29,08,43,14.50
2015,08,29,08,44,16.10
2015,08,29,08,45,12.90
2015,08,29,08,46,17.70
2015,08,29,08,47,25.70
2015,08,29,08,48,22.50
2015,08,29,08,49,20.90
2015,08,29,08,50,22.50
2015,08,29,08,51,24.20
2015,08,29,08,52,22.50
2015,08,29,08,53,22.50
2015,08,29,08,54,11.30
2015,08,29,08,55,25.70
2015,08,29,08,56,19.30
2015,08,29,08,57,25.70
2015,08,29,08,58,22.50
2015,08,29,08,59,30.60
2015,08,29,09,00,14.50
2015,08,29,09,01,24.20
2015,08,29,09,02,19.30
2015,08,29,09,03,17.70
2015,08,29,09,04,17.70
2015,08,29,09,05,25.70
2015,08,29,09,06,25.70
2015,08,29,09,07,11.30
2015,08,29,09,08,19.30
2015,08,29,09,09,17.70
2015,08,29,09,10,16.10
2015,08,29,09,11,25.70
2015,08,29,09,12,17.70
2015,08,29,09,13,11.30
2015,08,29,09,14,14.50
2015,08,29,09,15,16.10
2015,08,29,09,16,11.30
2015,08,29,09,17,11.30
2015,08,29,09,18,14.50
2015,08,29,09,19,16.10
2015,08,29,09,20,16.10
2015,08,29,09,21,16.10
2015,08,29,09,22,16.10
2015,08,29,09,23,12.90
2015,08,29,09,24,19.30
2015,08,29,09,25,14.50
2015,08,29,09,26,16.10
2015,08,29,09,27,17.70
2015,08,29,09,28,12.90
2015,08,29,09,29,17.70
2015,08,29,09,30,17.70
2015,08,29,09,31,20.90
2015,08,29,09,32,29.00
2015,08,29,09,33,20.90
2015,08,29,09,34,24.20
2015,08,29,09,35,20.90
2015,08,29,09,36,20.90
2015,08,29,09,37,24.20
2015,08,29,09,38,17.70
2015,08,29,09,39,37.00
2015,08,29,09,40,27.40
2015,08,29,09,41,25.70
2015,08,29,09,42,25.70
2015,08,29,09,43,24.20
2015,08,29,09,44,25.70
2015,08,29,09,45,14.50
2015,08,29,09,46,22.50
2015,08,29,09,47,14.50
2015,08,29,09,48,20.90
2015,08,29,09,49,22.50
2015,08,29,09,50,17.70
2015,08,29,09,51,25.70
2015,08,29,09,52,20.90
2015,08,29,09,53,30.60
2015,08,29,09,54,27.40
2015,08,29,09,55,22.50
2015,08,29,09,56,27.40
2015,08,29,09,57,17.70
2015,08,29,09,58,22.50
2015,08,29,09,59,29.00
2015,08,29,10,00,19.30
2015,08,29,10,01,20.90
2015,08,29,10,02,22.50
2015,08,29,10,03,20.90
2015,08,29,10,04,14.50
2015,08,29,10,05,19.30
2015,08,29,10,06,19.30
2015,08,29,10,07,19.30
2015,08,29,10,08,25.70
2015,08,29,10,09,19.30
2015,08,29,10,10,16.10
2015,08,29,10,11,25.70
2015,08,29,10,12,20.90
2015,08,29,10,13,22.50
2015,08,29,10,14,25.70
2015,08,29,10,15,29.00
2015,08,29,10,16,16.10
2015,08,29,10,17,19.30
2015,08,29,10,18,20.90
2015,08,29,10,19,14.50
2015,08,29,10,20,22.50
2015,08,29,10,21,22.50
2015,08,29,10,22,20.90
2015,08,29,10,23,25.70
2015,08,29,10,24,22.50
2015,08,29,10,25,22.50
2015,08,29,10,26,19.30
2015,08,29,10,27,16.10
2015,08,29,10,28,20.90
2015,08,29,10,29,14.50
2015,08,29,10,30,17.70
2015,08,29,10,31,29.00
2015,08,29,10,32,27.40
2015,08,29,10,33,17.70
2015,08,29,10,34,14.50
2015,08,29,10,35,24.20
2015,08,29,10,36,29.00
2015,08,29,10,37,25.70
2015,08,29,10,38,19.30
2015,08,29,10,39,17.70
2015,08,29,10,40,19.30
2015,08,29,10,41,20.90
2015,08,29,10,42,14.50
2015,08,29,10,43,22.50
2015,08,29,10,44,19.30
2015,08,29,10,45,16.10
2015,08,29,10,46,20.90
2015,08,29,10,47,29.00
2015,08,29,10,48,22.50
2015,08,29,10,49,17.70
2015,08,29,10,50,24.20
2015,08,29,10,51,20.90
2015,08,29,10,52,19.30
2015,08,29,10,53,24.20
2015,08,29,10,54,19.30
2015,08,29,10,55,14.50
2015,08,29,10,56,17.70
2015,08,29,10,57,19.30
2015,08,29,10,58,19.30
2015,08,29,10,59,16.10
2015,08,29,11,00,17.70
2015,08,29,11,01,17.70
2015,08,29,11,02,22.50
2015,08,29,11,03,19.30
2015,08,29,11,04,35.40
2015,08,29,11,05,24.20
2015,08,29,11,06,27.40
2015,08,29,11,07,20.90
2015,08,29,11,08,25.70
2015,08,29,11,09,25.70
2015,08,29,11,10,24.20
2015,08,29,11,11,24.20
2015,08,29,11,12,17.70
2015,08,29,11,13,20.90
2015,08,29,11,14,22.50
2015,08,29,11,15,19.30
2015,08,29,11,16,20.90
2015,08,29,11,17,24.20
2015,08,29,11,18,19.30
2015,08,29,11,19,20.90
2015,08,29,11,20,12.90
2015,08,29,11,21,14.50
2015,08,29,11,22,20.90
2015,08,29,11,23,19.30
2015,08,29,11,24,16.10
2015,08,29,11,25,20.90
2015,08,29,11,26,22.50
2015,08,29,11,27,20.90
2015,08,29,11,28,20.90
2015,08,29,11,29,12.90
2015,08,29,11,30,20.90
2015,08,29,11,31,25.70
2015,08,29,11,32,11.30
2015,08,29,11,33,11.30
2015,08,29,11,34,12.90
2015,08,29,11,35,14.50
2015,08,29,11,36,16.10
2015,08,29,11,37,12.90
2015,08,29,11,38,24.20
2015,08,29,11,39,19.30
2015,08,29,11,40,24.20
2015,08,29,11,41,22.50
2015,08,29,11,42,12.90
2015,08,29,11,43,30.60
2015,08,29,11,44,22.50
2015,08,29,11,45,20.90
2015,08,29,11,46,27.40
2015,08,29,11,47,24.20
2015,08,29,11,48,20.90
2015,08,29,11,49,35.40
2015,08,29,11,50,35.40
2015,08,29,11,51,20.90
2015,08,29,11,52,22.50
2015,08,29,11,53,33.80
2015,08,29,11,54,33.80
2015,08,29,11,55,35.40
2015,08,29,11,56,29.00
2015,08,29,11,57,22.50
2015,08,29,11,58,25.70
2015,08,29,11,59,25.70
2015,08,29,12,00,40.20
2015,08,29,12,01,35.40
2015,08,29,12,02,40.20
2015,08,29,12,03,33.80
2015,08,29,12,04,35.40
2015,08,29,12,05,35.40
2015,08,29,12,06,30.60
2015,08,29,12,07,30.60
2015,08,29,12,08,32.20
2015,08,29,12,09,38.60
2015,08,29,12,10,32.20
2015,08,29,12,11,27.40
2015,08,29,12,12,32.20
2015,08,29,12,13,43.50
2015,08,29,12,14,38.60
2015,08,29,12,15,40.20
2015,08,29,12,16,40.20
2015,08,29,12,17,48.30
2015,08,29,12,18,45.10
2015,08,29,12,19,33.80
2015,08,29,12,20,38.60
2015,08,29,12,21,35.40
2015,08,29,12,22,43.50
2015,08,29,12,23,40.20
2015,08,29,12,24,41.80
2015,08,29,12,25,38.60
2015,08,29,12,26,38.60
2015,08,29,12,27,40.20
2015,08,29,12,28,40.20
2015,08,29,12,29,37.00
2015,08,29,12,30,33.80
2015,08,29,12,31,35.40
2015,08,29,12,32,46.70
2015,08,29,12,33,41.80
2015,08,29,12,34,33.80
2015,08,29,12,35,48.30
2015,08,29,12,36,49.90
2015,08,29,12,37,64.40
2015,08,29,12,38,38.60
2015,08,29,12,39,38.60
2015,08,29,12,40,40.20
2015,08,29,12,41,27.40
2015,08,29,12,42,38.60
2015,08,29,12,43,38.60
2015,08,29,12,44,30.60
2015,08,29,12,45,41.80
2015,08,29,12,46,45.10
2015,08,29,12,47,45.10
2015,08,29,12,48,38.60
2015,08,29,12,49,35.40
2015,08,29,12,50,40.20
2015,08,29,12,51,40.20
2015,08,29,12,52,35.40
2015,08,29,12,53,29.00
2015,08,29,12,54,49.90
2015,08,29,12,55,37.00
2015,08,29,12,56,54.70
2015,08,29,12,57,40.20
2015,08,29,12,58,38.60
2015,08,29,12,59,40.20
2015,08,29,13,00,48.30
2015,08,29,13,01,40.20
2015,08,29,13,02,41.80
2015,08,29,13,03,38.60
2015,08,29,13,04,37.00
2015,08,29,13,05,37.00
2015,08,29,13,06,29.00
2015,08,29,13,07,27.40
2015,08,29,13,08,37.00
2015,08,29,13,09,33.80
2015,08,29,13,10,40.20
2015,08,29,13,11,46.70
2015,08,29,13,12,33.80
2015,08,29,13,13,37.00
2015,08,29,13,14,43.50
2015,08,29,13,15,38.60
2015,08,29,13,16,40.20
2015,08,29,13,17,22.50
2015,08,29,13,18,27.40
2015,08,29,13,19,30.60
2015,08,29,13,20,25.70
2015,08,29,13,21,33.80
2015,08,29,13,22,33.80
2015,08,29,13,23,33.80
2015,08,29,13,24,29.00
2015,08,29,13,25,29.00
2015,08,29,13,26,38.60
2015,08,29,13,27,29.00
2015,08,29,13,28,33.80
2015,08,29,13,29,32.20
2015,08,29,13,30,22.50
2015,08,29,13,31,17.70
2015,08,29,13,32,22.50
2015,08,29,13,33,32.20
2015,08,29,13,34,29.00
2015,08,29,13,35,40.20
2015,08,29,13,36,32.20
2015,08,29,13,37,40.20
2015,08,29,13,38,37.00
2015,08,29,13,39,30.60
2015,08,29,13,40,29.00
2015,08,29,13,41,25.70
2015,08,29,13,42,24.20
2015,08,29,13,43,27.40
2015,08,29,13,44,24.20
2015,08,29,13,45,37.00
2015,08,29,13,46,30.60
2015,08,29,13,47,32.20
2015,08,29,13,48,24.20
2015,08,29,13,49,17.70
2015,08,29,13,50,22.50
2015,08,29,13,51,24.20
2015,08,29,13,52,17.70
2015,08,29,13,53,19.30
2015,08,29,13,54,24.20
2015,08,29,13,55,25.70
2015,08,29,13,56,20.90
2015,08,29,13,57,12.90
2015,08,29,13,58,17.70
2015,08,29,13,59,25.70
2015,08,29,14,00,16.10
2015,08,29,14,01,22.50
2015,08,29,14,02,19.30
2015,08,29,14,03,19.30
2015,08,29,14,04,24.20
2015,08,29,14,05,32.20
2015,08,29,14,06,25.70
2015,08,29,14,07,27.40
2015,08,29,14,08,20.90
2015,08,29,14,09,12.90
2015,08,29,14,10,16.10
2015,08,29,14,11,17.70
2015,08,29,14,12,19.30
2015,08,29,14,13,17.70
2015,08,29,14,14,25.70
2015,08,29,14,15,20.90
2015,08,29,14,16,22.50
2015,08,29,14,17,20.90
2015,08,29,14,18,20.90
2015,08,29,14,19,30.60
2015,08,29,14,20,20.90
2015,08,29,14,21,27.40
2015,08,29,14,22,27.40
2015,08,29,14,23,29.00
2015,08,29,14,24,25.70
2015,08,29,14,25,17.70
2015,08,29,14,26,14.50
2015,08,29,14,27,17.70
2015,08,29,14,28,22.50
2015,08,29,14,29,16.10
2015,08,29,14,30,11.30
2015,08,29,14,31,8.10
2015,08,29,14,32,14.50
2015,08,29,14,33,11.30
2015,08,29,14,34,11.30
2015,08,29,14,35,8.10
2015,08,29,14,36,4.80
2015,08,29,14,37,8.10
2015,08,29,14,38,6.40
2015,08,29,14,39,8.10
2015,08,29,14,40,12.90
2015,08,29,14,41,12.90
2015,08,29,14,42,12.90
2015,08,29,14,43,11.30
2015,08,29,14,44,4.80
2015,08,29,14,45,11.30
2015,08,29,14,46,11.30
2015,08,29,14,47,11.30
2015,08,29,14,48,4.80
2015,08,29,14,49,8.10
2015,08,29,14,50,9.60
2015,08,29,14,51,8.10
2015,08,29,14,52,3.20
2015,08,29,14,53,11.30
2015,08,29,14,54,9.60
2015,08,29,14,55,11.30
2015,08,29,14,56,9.60
2015,08,29,14,57,9.60
2015,08,29,14,58,9.60
2015,08,29,14,59,17.70
2015,08,29,15,00,16.10
2015,08,29,15,01,22.50
2015,08,29,15,02,24.20
2015,08,29,15,03,22.50
2015,08,29,15,04,20.90
2015,08,29,15,05,29.00
2015,08,29,15,06,20.90
2015,08,29,15,07,29.00
2015,08,29,15,08,24.20
2015,08,29,15,09,29.00
2015,08,29,15,10,25.70
2015,08,29,15,11,29.00
2015,08,29,15,12,24.20
2015,08,29,15,13,16.10
2015,08,29,15,14,20.90
2015,08,29,15,15,16.10
2015,08,29,15,16,22.50
2015,08,29,15,17,25.70
2015,08,29,15,18,35.40
2015,08,29,15,19,35.40
2015,08,29,15,20,25.70
2015,08,29,15,21,24.20
2015,08,29,15,22,29.00
2015,08,29,15,23,32.20
2015,08,29,15,24,29.00
2015,08,29,15,25,27.40
2015,08,29,15,26,25.70
2015,08,29,15,27,30.60
2015,08,29,15,28,24.20
2015,08,29,15,29,30.60
2015,08,29,15,30,29.00
2015,08,29,15,31,25.70
2015,08,29,15,32,17.70
2015,08,29,15,33,17.70
2015,08,29,15,34,16.10
2015,08,29,15,35,17.70
2015,08,29,15,36,20.90
2015,08,29,15,37,17.70
2015,08,29,15,38,16.10
2015,08,29,15,39,20.90
2015,08,29,15,40,11.30
2015,08,29,15,41,11.30
2015,08,29,15,42,17.70
2015,08,29,15,43,20.90
2015,08,29,15,44,24.20
2015,08,29,15,45,11.30
2015,08,29,15,46,12.90
2015,08,29,15,47,9.60
2015,08,29,15,48,17.70
2015,08,29,15,49,16.10
2015,08,29,15,50,16.10
2015,08,29,15,51,17.70
2015,08,29,15,52,16.10
2015,08,29,15,53,12.90
2015,08,29,15,54,14.50
2015,08,29,15,55,19.30
2015,08,29,15,56,12.90
2015,08,29,15,57,9.60
2015,08,29,15,58,12.90
2015,08,29,15,59,17.70
2015,08,29,16,00,19.30
2015,08,29,16,01,19.30
2015,08,29,16,02,17.70
2015,08,29,16,03,16.10
2015,08,29,16,04,14.50
2015,08,29,16,05,22.50
2015,08,29,16,06,20.90
2015,08,29,16,07,14.50
2015,08,29,16,08,9.60
2015,08,29,16,09,9.60
2015,08,29,16,10,11.30
2015,08,29,16,11,16.10
2015,08,29,16,12,11.30
2015,08,29,16,13,14.50
2015,08,29,16,14,16.10
2015,08,29,16,15,20.90
2015,08,29,16,16,27.40
2015,08,29,16,17,30.60
2015,08,29,16,18,24.20
2015,08,29,16,19,14.50
2015,08,29,16,20,20.90
2015,08,29,16,21,20.90
2015,08,29,16,22,16.10
2015,08,29,16,23,27.40
2015,08,29,16,24,19.30
2015,08,29,16,25,16.10
2015,08,29,16,26,27.40
2015,08,29,16,27,27.40
2015,08,29,16,28,24.20
2015,08,29,16,29,19.30
2015,08,29,16,30,22.50
2015,08,29,16,31,25.70
2015,08,29,16,32,25.70
2015,08,29,16,33,19.30
2015,08,29,16,34,22.50
2015,08,29,16,35,20.90
2015,08,29,16,36,20.90
2015,08,29,16,37,20.90
2015,08,29,16,38,20.90
2015,08,29,16,39,20.90
2015,08,29,16,40,19.30
2015,08,29,16,41,19.30
2015,08,29,16,42,17.70
2015,08,29,16,43,17.70
2015,08,29,16,44,17.70
2015,08,29,16,45,22.50
2015,08,29,16,46,17.70
2015,08,29,16,47,16.10
2015,08,29,16,48,14.50
2015,08,29,16,49,11.30
2015,08,29,16,50,14.50
2015,08,29,16,51,16.10
2015,08,29,16,52,16.10
2015,08,29,16,53,16.10
2015,08,29,16,54,17.70
2015,08,29,16,55,17.70
2015,08,29,16,56,16.10
2015,08,29,16,57,12.90
2015,08,29,16,58,16.10
2015,08,29,16,59,19.30
2015,08,29,17,00,19.30
2015,08,29,17,01,22.50
2015,08,29,17,02,17.70
2015,08,29,17,03,19.30
2015,08,29,17,04,14.50
2015,08,29,17,05,16.10
2015,08,29,17,06,22.50
2015,08,29,17,07,17.70
2015,08,29,17,08,22.50
2015,08,29,17,09,17.70
2015,08,29,17,10,19.30
2015,08,29,17,11,19.30
2015,08,29,17,12,22.50
2015,08,29,17,13,20.90
2015,08,29,17,14,19.30
2015,08,29,17,15,22.50
2015,08,29,17,16,22.50
2015,08,29,17,17,16.10
2015,08,29,17,18,20.90
2015,08,29,17,19,11.30
2015,08,29,17,20,20.90
2015,08,29,17,21,17.70
2015,08,29,17,22,16.10
2015,08,29,17,23,11.30
2015,08,29,17,24,16.10
2015,08,29,17,25,14.50
2015,08,29,17,26,12.90
2015,08,29,17,27,16.10
2015,08,29,17,28,11.30
2015,08,29,17,29,11.30
2015,08,29,17,30,8.10
2015,08,29,17,31,14.50
2015,08,29,17,32,19.30
2015,08,29,17,33,17.70
2015,08,29,17,34,16.10
2015,08,29,17,35,16.10
2015,08,29,17,36,14.50
2015,08,29,17,37,16.10
2015,08,29,17,38,19.30
2015,08,29,17,39,14.50
2015,08,29,17,40,16.10
2015,08,29,17,41,16.10
2015,08,29,17,42,12.90
2015,08,29,17,43,17.70
2015,08,29,17,44,14.50
2015,08,29,17,45,22.50
2015,08,29,17,46,17.70
2015,08,29,17,47,16.10
2015,08,29,17,48,14.50
2015,08,29,17,49,12.90
2015,08,29,17,50,17.70
2015,08,29,17,51,17.70
2015,08,29,17,52,20.90
2015,08,29,17,53,24.20
2015,08,29,17,54,20.90
2015,08,29,17,55,22.50
2015,08,29,17,56,12.90
2015,08,29,17,57,19.30
2015,08,29,17,58,14.50
2015,08,29,17,59,14.50
2015,08,29,18,00,14.50
2015,08,29,18,01,14.50
2015,08,29,18,02,16.10